User: anonymous   Login
Location: B?dargowo
(53.3916°N, 14.4413°E)
Time: 21:02:06
(UTC+00:00)
Language:

COSMOS 2251 DEB - Orbit

View from above orbital plane
View from above orbital plane
View from above satellite
View from above satellite

Ground track
Ground track

The orbit data is extracted from the following two-line orbital elements,

1 36558U 93036BDU 24058.05649053  .00003625  00000-0  99221-3 0  9991
2 36558  74.0476 306.7152 0017107 195.6371 164.4262 14.47465397759915
Epoch (UTC): 27 February 2024 01:21:20
Eccentricity: 0.0017107
inclination: 74.0476°
perigee height: 722 km
apogee height: 746 km
right ascension of ascending node: 306.7152°
argument of perigee: 195.6371°
revolutions per day: 14.47465397
mean anomaly at epoch: 164.4262°
orbit number at epoch: 75991

The dashed part of the orbit path shows where the satellite is in the earth's shadow,  

DLR